HFM303 KLCK-KRDU

Flight info

Callsign HFM303
Flight time 0h 51m
Altitude 33000
Route POBSE OHIOS
Aircraft A343/H-SDE2E3FGHIJ4J5M1RWXY/LB1D1

Departure

Time 2026-05-07 00:31
Airport Rickenbacker International Airport (KLCK)

Arrival

Time 2026-05-07 01:22
Airport Raleigh-Durham International Airport (KRDU)
Time Latitude Longitude Altitude Speed Heading
2026-05-07 00:05 39.82328 -82.92375 743 ft 0 kts 315°
2026-05-07 00:20 39.82318 -82.92362 742 ft 4 kts 321°
2026-05-07 00:20 39.82295 -82.92343 744 ft 4 kts 337°
2026-05-07 00:20 39.82279 -82.92336 743 ft 4 kts 352°
2026-05-07 00:20 39.82245 -82.92341 743 ft 4 kts 36°
2026-05-07 00:21 39.82239 -82.92348 743 ft 0 kts 45°
2026-05-07 00:22 39.82238 -82.92348 743 ft 0 kts 45°
2026-05-07 00:26 39.82238 -82.92347 747 ft 1 kts 45°
2026-05-07 00:26 39.82258 -82.92322 743 ft 6 kts 45°
2026-05-07 00:26 39.82297 -82.92271 743 ft 10 kts 45°
2026-05-07 00:27 39.82353 -82.92197 742 ft 13 kts 45°
2026-05-07 00:27 39.82426 -82.92102 742 ft 16 kts 45°
2026-05-07 00:27 39.82505 -82.91999 743 ft 16 kts 45°
2026-05-07 00:27 39.82585 -82.91895 742 ft 16 kts 45°
2026-05-07 00:28 39.82665 -82.91791 743 ft 17 kts 45°
2026-05-07 00:28 39.82746 -82.91686 742 ft 16 kts 45°
2026-05-07 00:28 39.82767 -82.91579 742 ft 11 kts 124°
2026-05-07 00:28 39.82708 -82.91506 744 ft 12 kts 136°
2026-05-07 00:29 39.82646 -82.91426 742 ft 14 kts 134°
2026-05-07 00:29 39.82574 -82.91334 743 ft 15 kts 135°
2026-05-07 00:30 39.82366 -82.91240 744 ft 14 kts 224°
2026-05-07 00:30 39.82200 -82.91451 744 ft 59 kts 225°
2026-05-07 00:30 39.81788 -82.91997 743 ft 109 kts 225°
2026-05-07 00:30 39.81154 -82.92826 744 ft 148 kts 225°
2026-05-07 00:31 39.80358 -82.93865 798 ft 178 kts 227°
2026-05-07 00:31 39.79445 -82.95051 1190 ft 187 kts 228°
2026-05-07 00:31 39.78518 -82.96277 1698 ft 198 kts 227°
2026-05-07 00:31 39.77513 -82.97611 2127 ft 220 kts 227°
2026-05-07 00:32 39.76379 -82.99120 2512 ft 246 kts 227°
2026-05-07 00:32 39.75133 -83.00769 2889 ft 262 kts 225°
2026-05-07 00:32 39.73614 -83.02129 3247 ft 269 kts 204°
2026-05-07 00:32 39.71756 -83.02566 4066 ft 272 kts 176°
2026-05-07 00:33 39.70009 -83.01800 5014 ft 272 kts 148°
2026-05-07 00:33 39.68531 -83.00250 5911 ft 276 kts 134°
2026-05-07 00:33 39.67269 -82.98348 6751 ft 281 kts 128°
2026-05-07 00:33 39.66101 -82.96269 7460 ft 289 kts 127°
2026-05-07 00:34 39.64932 -82.94105 8161 ft 297 kts 129°
2026-05-07 00:34 39.63717 -82.91901 8873 ft 304 kts 131°
2026-05-07 00:34 39.62442 -82.89676 9577 ft 310 kts 133°
2026-05-07 00:34 39.61117 -82.87443 10233 ft 318 kts 135°
2026-05-07 00:35 39.59706 -82.85129 10550 ft 336 kts 136°
2026-05-07 00:35 39.58201 -82.82699 10792 ft 355 kts 136°
2026-05-07 00:35 39.56616 -82.80146 11077 ft 371 kts 136°
2026-05-07 00:35 39.54982 -82.77503 11559 ft 380 kts 136°
2026-05-07 00:36 39.53321 -82.74799 12173 ft 385 kts 136°
2026-05-07 00:36 39.51639 -82.72056 12802 ft 390 kts 136°
2026-05-07 00:36 39.49945 -82.69295 13423 ft 396 kts 136°
2026-05-07 00:36 39.48180 -82.66554 13979 ft 396 kts 142°
2026-05-07 00:37 39.46114 -82.64245 14534 ft 388 kts 155°
2026-05-07 00:37 39.43762 -82.62657 15068 ft 377 kts 171°
2026-05-07 00:37 39.41259 -82.61886 15632 ft 366 kts 184°
2026-05-07 00:37 39.38743 -82.61709 16230 ft 360 kts 192°
2026-05-07 00:38 39.36251 -82.61870 16844 ft 358 kts 196°
2026-05-07 00:38 39.33769 -82.62185 17416 ft 359 kts 198°
2026-05-07 00:38 39.31274 -82.62548 18019 ft 362 kts 199°
2026-05-07 00:38 39.28755 -82.62903 18603 ft 365 kts 199°
2026-05-07 00:39 39.26219 -82.63225 19183 ft 367 kts 198°
2026-05-07 00:39 39.23669 -82.63518 19770 ft 369 kts 198°
2026-05-07 00:39 39.21104 -82.63789 20361 ft 370 kts 197°
2026-05-07 00:39 39.18499 -82.63876 20913 ft 383 kts 190°
2026-05-07 00:40 39.15798 -82.63305 21480 ft 406 kts 177°
2026-05-07 00:40 39.13150 -82.61748 22034 ft 437 kts 159°
2026-05-07 00:40 39.10753 -82.59029 22500 ft 464 kts 143°
2026-05-07 00:40 39.08622 -82.55847 22865 ft 475 kts 141°
2026-05-07 00:41 39.06523 -82.52614 23270 ft 478 kts 141°
2026-05-07 00:41 39.04372 -82.49328 23731 ft 480 kts 142°
2026-05-07 00:41 39.02203 -82.46048 24077 ft 483 kts 142°
2026-05-07 00:41 39.00011 -82.42755 24411 ft 487 kts 142°
2026-05-07 00:42 38.97795 -82.39440 24737 ft 490 kts 142°
2026-05-07 00:42 38.95566 -82.36117 25076 ft 493 kts 142°
2026-05-07 00:42 38.93319 -82.32771 25419 ft 496 kts 142°
2026-05-07 00:42 38.91054 -82.29402 25755 ft 499 kts 143°
2026-05-07 00:43 38.88776 -82.26018 26087 ft 502 kts 143°
2026-05-07 00:43 38.86489 -82.22627 26425 ft 505 kts 143°
2026-05-07 00:43 38.84184 -82.19213 26654 ft 508 kts 142°
2026-05-07 00:43 38.81855 -82.15769 26948 ft 512 kts 142°
2026-05-07 00:44 38.79519 -82.12315 27286 ft 514 kts 143°
2026-05-07 00:44 38.77168 -82.08841 27594 ft 517 kts 143°
2026-05-07 00:44 38.74811 -82.05364 27903 ft 519 kts 143°
2026-05-07 00:44 38.72433 -82.01861 28222 ft 522 kts 143°
2026-05-07 00:45 38.70044 -81.98346 28517 ft 524 kts 143°
2026-05-07 00:45 38.67642 -81.94816 28799 ft 527 kts 143°
2026-05-07 00:45 38.65231 -81.91277 29087 ft 529 kts 143°
2026-05-07 00:45 38.62805 -81.87718 29378 ft 532 kts 143°
2026-05-07 00:46 38.60365 -81.84143 29616 ft 534 kts 143°
2026-05-07 00:46 38.57932 -81.80578 30078 ft 532 kts 142°
2026-05-07 00:46 38.55502 -81.77021 30388 ft 532 kts 143°
2026-05-07 00:46 38.53057 -81.73455 30584 ft 535 kts 143°
2026-05-07 00:47 38.50602 -81.69877 30779 ft 537 kts 143°
2026-05-07 00:47 38.48140 -81.66294 30991 ft 539 kts 143°
2026-05-07 00:47 38.45663 -81.62689 31211 ft 540 kts 143°
2026-05-07 00:47 38.43184 -81.59082 31520 ft 539 kts 143°
2026-05-07 00:48 38.40711 -81.55490 31789 ft 540 kts 143°
2026-05-07 00:48 38.38233 -81.51895 32047 ft 540 kts 143°
2026-05-07 00:48 38.35752 -81.48300 32316 ft 540 kts 143°
2026-05-07 00:48 38.33268 -81.44705 32514 ft 541 kts 143°
2026-05-07 00:49 38.30773 -81.41101 32682 ft 543 kts 143°
2026-05-07 00:49 38.28271 -81.37491 32913 ft 545 kts 143°
2026-05-07 00:49 38.23306 -81.30327 32981 ft 538 kts 143°
2026-05-07 00:50 38.18369 -81.23224 32976 ft 535 kts 143°
2026-05-07 00:50 38.13440 -81.16158 32975 ft 534 kts 143°
2026-05-07 00:51 38.08521 -81.09114 32483 ft 531 kts 143°
2026-05-07 00:51 38.06064 -81.05609 32184 ft 534 kts 143°
2026-05-07 00:51 38.03576 -81.02071 31917 ft 541 kts 143°
2026-05-07 00:52 38.01070 -80.98502 31663 ft 541 kts 142°
2026-05-07 00:52 37.98575 -80.94939 31426 ft 540 kts 142°
2026-05-07 00:52 37.96085 -80.91390 31182 ft 539 kts 142°
2026-05-07 00:52 37.93604 -80.87861 30914 ft 536 kts 142°
2026-05-07 00:53 37.91132 -80.84345 30580 ft 532 kts 142°
2026-05-07 00:53 37.88671 -80.80851 30170 ft 527 kts 142°
2026-05-07 00:53 37.86251 -80.77415 29847 ft 519 kts 143°
2026-05-07 00:53 37.83856 -80.74023 29325 ft 515 kts 142°
2026-05-07 00:54 37.81482 -80.70667 28965 ft 509 kts 142°
2026-05-07 00:54 37.79115 -80.67329 28933 ft 510 kts 142°
2026-05-07 00:54 37.74365 -80.60648 28956 ft 511 kts 142°
2026-05-07 00:55 37.71993 -80.57313 28776 ft 511 kts 142°
2026-05-07 00:55 37.69621 -80.53972 28527 ft 509 kts 142°
2026-05-07 00:55 37.67253 -80.50645 28251 ft 509 kts 142°
2026-05-07 00:55 37.64900 -80.47344 27982 ft 508 kts 142°
2026-05-07 00:56 37.62536 -80.44030 27715 ft 505 kts 142°
2026-05-07 00:56 37.60190 -80.40743 27462 ft 503 kts 142°
2026-05-07 00:56 37.57848 -80.37467 27204 ft 502 kts 142°
2026-05-07 00:56 37.55518 -80.34212 26904 ft 500 kts 142°
2026-05-07 00:57 37.53194 -80.30967 26650 ft 497 kts 142°
2026-05-07 00:57 37.50879 -80.27737 26416 ft 495 kts 142°
2026-05-07 00:57 37.48575 -80.24527 26166 ft 493 kts 142°
2026-05-07 00:57 37.46277 -80.21330 25926 ft 492 kts 141°
2026-05-07 00:58 37.43981 -80.18138 25691 ft 490 kts 141°
2026-05-07 00:58 37.41709 -80.14980 25441 ft 489 kts 141°
2026-05-07 00:58 37.39418 -80.11801 25213 ft 488 kts 141°
2026-05-07 00:58 37.37138 -80.08637 24981 ft 487 kts 141°
2026-05-07 00:59 37.32590 -80.02344 24523 ft 485 kts 141°
2026-05-07 00:59 37.30326 -79.99214 24296 ft 484 kts 141°
2026-05-07 00:59 37.28068 -79.96096 24041 ft 483 kts 140°
2026-05-07 01:00 37.25810 -79.92979 23791 ft 482 kts 140°
2026-05-07 01:00 37.23557 -79.89872 23565 ft 481 kts 140°
2026-05-07 01:00 37.21416 -79.86618 23347 ft 485 kts 135°
2026-05-07 01:00 37.19371 -79.83269 23071 ft 484 kts 134°
2026-05-07 01:01 37.17320 -79.79924 22796 ft 482 kts 135°
2026-05-07 01:01 37.15271 -79.76616 22525 ft 480 kts 134°
2026-05-07 01:01 37.13222 -79.73334 22265 ft 477 kts 134°
2026-05-07 01:01 37.11171 -79.70062 22000 ft 475 kts 134°
2026-05-07 01:02 37.09136 -79.66826 21738 ft 473 kts 134°
2026-05-07 01:02 37.07101 -79.63595 21498 ft 471 kts 134°
2026-05-07 01:02 37.05078 -79.60391 21261 ft 469 kts 134°
2026-05-07 01:02 37.03054 -79.57190 21012 ft 467 kts 134°
2026-05-07 01:03 37.01041 -79.54009 20741 ft 466 kts 134°
2026-05-07 01:03 36.99038 -79.50846 20485 ft 460 kts 134°
2026-05-07 01:03 36.97064 -79.47729 20074 ft 456 kts 134°
2026-05-07 01:03 36.95094 -79.44627 19623 ft 454 kts 134°
2026-05-07 01:04 36.93131 -79.41539 19145 ft 452 kts 134°
2026-05-07 01:04 36.91839 -79.39507 18840 ft 451 kts 134°
2026-05-07 01:04 36.89889 -79.36444 18368 ft 449 kts 134°
2026-05-07 01:04 36.87950 -79.33396 17887 ft 447 kts 134°
2026-05-07 01:05 36.86021 -79.30371 17404 ft 443 kts 134°
2026-05-07 01:05 36.84108 -79.27372 16929 ft 440 kts 134°
2026-05-07 01:05 36.82211 -79.24402 16482 ft 436 kts 134°
2026-05-07 01:05 36.80327 -79.21453 16031 ft 433 kts 134°
2026-05-07 01:06 36.78460 -79.18535 15555 ft 429 kts 133°
2026-05-07 01:06 36.76603 -79.15634 15114 ft 426 kts 133°
2026-05-07 01:06 36.74764 -79.12765 14657 ft 422 kts 133°
2026-05-07 01:06 36.72936 -79.09914 14183 ft 419 kts 133°
2026-05-07 01:07 36.71124 -79.07091 13761 ft 415 kts 133°
2026-05-07 01:07 36.69324 -79.04301 13271 ft 411 kts 134°
2026-05-07 01:07 36.67276 -79.01925 12834 ft 397 kts 152°
2026-05-07 01:07 36.64811 -79.00577 12424 ft 380 kts 170°
2026-05-07 01:08 36.62263 -78.99811 12017 ft 374 kts 173°
2026-05-07 01:08 36.59738 -78.99112 11611 ft 370 kts 173°
2026-05-07 01:08 36.57246 -78.98412 11291 ft 363 kts 172°
2026-05-07 01:08 36.54828 -78.97720 11188 ft 351 kts 172°
2026-05-07 01:09 36.52490 -78.97045 11065 ft 340 kts 173°
2026-05-07 01:09 36.50238 -78.96395 10924 ft 330 kts 173°
2026-05-07 01:09 36.48032 -78.95758 10787 ft 321 kts 173°
2026-05-07 01:09 36.45890 -78.95140 10653 ft 312 kts 173°
2026-05-07 01:10 36.43804 -78.94538 10539 ft 303 kts 173°
2026-05-07 01:10 36.41775 -78.93949 10386 ft 297 kts 173°
2026-05-07 01:10 36.39825 -78.93069 10123 ft 304 kts 155°
2026-05-07 01:10 36.38173 -78.91399 9959 ft 307 kts 141°
2026-05-07 01:11 36.36701 -78.89522 9868 ft 299 kts 140°
2026-05-07 01:11 36.35269 -78.87666 9529 ft 300 kts 140°
2026-05-07 01:11 36.33807 -78.85788 9061 ft 304 kts 140°
2026-05-07 01:11 36.32333 -78.83902 8753 ft 304 kts 139°
2026-05-07 01:12 36.30858 -78.82018 8507 ft 305 kts 139°
2026-05-07 01:12 36.29385 -78.80138 8319 ft 300 kts 139°
2026-05-07 01:12 36.27952 -78.78303 8155 ft 293 kts 139°
2026-05-07 01:12 36.26543 -78.76504 7978 ft 287 kts 140°
2026-05-07 01:13 36.25070 -78.74913 7785 ft 278 kts 146°
2026-05-07 01:13 36.23705 -78.73229 7630 ft 274 kts 138°
2026-05-07 01:13 36.22425 -78.71528 7536 ft 266 kts 138°
2026-05-07 01:13 36.21187 -78.69885 7319 ft 257 kts 139°
2026-05-07 01:14 36.19973 -78.68288 6835 ft 255 kts 139°
2026-05-07 01:14 36.18750 -78.66693 6308 ft 255 kts 140°
2026-05-07 01:14 36.17543 -78.65110 6043 ft 253 kts 139°
2026-05-07 01:14 36.16310 -78.63492 5989 ft 255 kts 139°
2026-05-07 01:15 36.15099 -78.61904 5988 ft 254 kts 140°
2026-05-07 01:15 36.13877 -78.60339 5977 ft 251 kts 144°
2026-05-07 01:15 36.12456 -78.59196 5824 ft 239 kts 165°
2026-05-07 01:15 36.10906 -78.58502 5587 ft 235 kts 169°
2026-05-07 01:16 36.09354 -78.57904 5376 ft 232 kts 170°
2026-05-07 01:16 36.07811 -78.57323 5146 ft 231 kts 171°
2026-05-07 01:16 36.06280 -78.56741 4938 ft 229 kts 170°
2026-05-07 01:16 36.04756 -78.56156 4716 ft 228 kts 170°
2026-05-07 01:17 36.03245 -78.55576 4486 ft 227 kts 170°
2026-05-07 01:17 36.01722 -78.54995 4219 ft 227 kts 170°
2026-05-07 01:17 36.00230 -78.54518 3961 ft 220 kts 180°
2026-05-07 01:17 35.98775 -78.54826 3705 ft 205 kts 213°
2026-05-07 01:18 35.97812 -78.56034 3445 ft 200 kts 245°
2026-05-07 01:18 35.97420 -78.57683 3147 ft 201 kts 258°
2026-05-07 01:18 35.97221 -78.59379 3009 ft 197 kts 260°
2026-05-07 01:18 35.97055 -78.61059 3006 ft 198 kts 260°
2026-05-07 01:19 35.96888 -78.62733 3000 ft 200 kts 260°
2026-05-07 01:19 35.96622 -78.64436 2984 ft 199 kts 251°
2026-05-07 01:19 35.96188 -78.66030 2725 ft 199 kts 249°
2026-05-07 01:19 35.95715 -78.67661 2549 ft 196 kts 249°
2026-05-07 01:20 35.95249 -78.69258 2422 ft 191 kts 248°
2026-05-07 01:20 35.94757 -78.70729 2302 ft 179 kts 240°
2026-05-07 01:20 35.94046 -78.71979 2060 ft 164 kts 228°
2026-05-07 01:20 35.93305 -78.72926 1882 ft 153 kts 224°
2026-05-07 01:21 35.92526 -78.73792 1586 ft 147 kts 220°
2026-05-07 01:21 35.91784 -78.74666 1266 ft 142 kts 228°
2026-05-07 01:21 35.91140 -78.75566 952 ft 141 kts 229°
2026-05-07 01:21 35.90429 -78.76530 723 ft 139 kts 223°
2026-05-07 01:22 35.89973 -78.77077 623 ft 142 kts 221°
2026-05-07 01:22 35.89035 -78.78243 447 ft 140 kts 222°
2026-05-07 01:22 35.88437 -78.78971 419 ft 106 kts 224°
2026-05-07 01:22 35.88088 -78.79398 423 ft 36 kts 225°
2026-05-07 01:23 35.87952 -78.79466 427 ft 0 kts 156°
2026-05-07 01:23 35.87952 -78.79465 427 ft 1 kts 155°
2026-05-07 01:23 35.87950 -78.79464 428 ft 0 kts 152°
2026-05-07 01:23 35.87944 -78.79459 426 ft 2 kts 144°
2026-05-07 01:24 35.87940 -78.79448 427 ft 2 kts 112°
2026-05-07 01:24 35.87956 -78.79389 431 ft 11 kts 57°
2026-05-07 01:24 35.88014 -78.79307 422 ft 15 kts 45°
2026-05-07 01:24 35.88092 -78.79212 421 ft 13 kts 46°
2026-05-07 01:25 35.88160 -78.79125 421 ft 16 kts 46°
2026-05-07 01:25 35.88216 -78.79006 421 ft 18 kts 90°
2026-05-07 01:25 35.88277 -78.78873 416 ft 19 kts 46°
2026-05-07 01:25 35.88375 -78.78750 424 ft 21 kts 45°
2026-05-07 01:26 35.88477 -78.78623 417 ft 19 kts 45°
2026-05-07 01:26 35.88562 -78.78518 417 ft 11 kts 45°
2026-05-07 01:26 35.88621 -78.78448 418 ft 11 kts 44°
2026-05-07 01:26 35.88678 -78.78379 419 ft 12 kts 44°
2026-05-07 01:27 35.88731 -78.78284 423 ft 16 kts 86°
2026-05-07 01:27 35.88774 -78.78156 414 ft 17 kts 44°
2026-05-07 01:27 35.88861 -78.78050 416 ft 19 kts 48°
2026-05-07 01:27 35.88906 -78.77895 416 ft 16 kts 104°
2026-05-07 01:28 35.88876 -78.77857 421 ft 0 kts 139°